www.pogodaiklimat.ru

Погода и климат >> Архив погоды >> Россия >> Ростовская область >> Цимлянск


АРХИВ ПОГОДЫ в Цимлянске

Время (UTC), дата Ветер
(напр.,м/с)
 
Видим.   Явления Облачность Т
(С)
Тd
(С)
f
(%)
Тe
(С)
Тes
(С)
Комфортность P
(гПа)
Po
(гПа)
Тmin
(С)
Tmax
(С)
R
(мм)
R24
(мм)
S
(см)
18 12.06 С 2 20 км 10/0
[Ac trans Ci fib]
+29.3 +6.4 24 +28 +28 жарко 1010.7 1003.2
21 12.06 В 2 20 км 8/0
[Ci fib]
+25.6 +10.9 40 +27 +27 жарко 1010.8 1003.3
00 13.06 СВ 1 20 км 8/0
[Ci fib]
+24.3 +8.9 38 +25 +25 комфорт 1011.1 1003.5
03 13.06 СВ 1 20 км 10/0
[Ac trans Ci fib]
+24.1 +15.8 60 +27 +29 жарко 1011.4 1003.9 +21.4
06 13.06 СВ 2 20 км 9/0
[Ci fib]
+28.0 +13.9 42 +30 +39 жарко 1012.3 1004.8
09 13.06 В 2 20 км 10/0
[Ci]
+32.2 +11.3 28 +32 +47 жарко 1011.9 1004.5
12 13.06 Ю 1 20 км 10/3 1000 м
[Cu hum Ci fib]
+33.9 +9.3 22 +33 +41 жарко 1010.6 1003.3
15 13.06 СВ 5-14
{14}
20 км 10/4 600 м
[Cu med, cong Ac As Ci fib]
+30.8 +15.3 39 +33 +34 душно 1011.4 1004.0 +35.7
18 13.06 В 5-12
{15}
20 км 8/0
[Ac trans Ci fib]
+26.3 +16.7 56 +30 +30 душно 1014.0 1006.4
21 13.06 СВ 6-15
{15}
20 км 8/0
[Ac trans Ci fib]
+23.9 +14.4 55 +26 +26 жарко 1015.7 1008.1
00 14.06 В 7-14
{15}
20 км 3/0
[Ci fib]
+20.6 +8.9 47 +22 +22 комфорт 1017.4 1009.7
03 14.06 В 6-11
{15}
20 км ясно +18.7 +7.4 48 +19 +19 1019.3 1011.5 +18.6
06 14.06 В 4
{14}
20 км ясно +20.5 +7.0 42 +22 +29 комфорт 1020.1 1012.4 +18.5
09 14.06 СВ 4
{10}
20 км ясно +23.2 +6.2 33 +24 +36 комфорт 1019.5 1011.8
12 14.06 СВ 3 20 км ясно +26.2 +5.9 27 +26 +36 жарко 1018.4 1010.8
15 14.06 СВ 2 20 км ясно +26.6 +1.9 20 +25 +27 комфорт 1017.1 1009.5 +26.8
18 14.06 СВ 2 20 км ясно +21.9 +1.9 27 +22 +22 комфорт 1017.4 1009.7
21 14.06 СВ 2 20 км ясно +21.1 +8.4 44 +22 +22 комфорт 1016.6 1008.9
00 15.06 СВ 2 20 км ясно +18.7 +12.0 65 +20 +20 1016.2 1008.4
03 15.06 В 2 20 км ясно +19.9 +5.2 38 +21 +23 комфорт 1015.9 1008.2 +18.3
06 15.06 В 1 20 км 3/0
[Ac trans]
+25.6 +6.7 30 +25 +36 комфорт 1015.7 1008.1
09 15.06 В 3 20 км 3/0
[Ac trans]
+27.5 +2.5 20 +26 +38 жарко 1014.5 1006.9
12 15.06 В 2 20 км 3/0
[Ac trans Ci fib]
+29.5 +2.9 18 +27 +39 жарко 1012.5 1005.0
15 15.06 В 1 20 км 4/0
[Ac trans Ci fib]
+30.0 +6.3 22 +29 +31 жарко 1011.0 1003.5 +30.5
18 15.06 З 1 20 км 3/0
[Ci fib]
+25.5 +7.1 31 +25 +25 комфорт 1011.5 1003.9
21 15.06 С 2 20 км 4/0
[Ac trans Ci fib]
+23.2 +8.1 38 +24 +24 комфорт 1011.1 1003.4
00 16.06 СВ 3 20 км 4/0
[Ac trans Ci fib]
+22.3 +14.9 63 +26 +26 жарко 1010.3 1002.7
03 16.06 СВ 1 20 км ясно +23.5 +17.0 67 +27 +29 душно 1010.1 1002.5 +21.5
06 16.06 В 3 20 км 1/0
[Ci fib]
+24.9 +18.1 66 +29 +38 душно 1010.5 1003.0
09 16.06 В 2 20 км 1/1 1000 м
[Cu med, cong]
+28.9 +18.5 53 +34 +50 очень
душно
1009.8 1002.4
12 16.06 СВ 3 20 км гроза без осадков 9/9 1000 м
[Cu med, cong]
+30.4 +18.2 48 +35 +36 очень
душно
1008.2 1000.8
15 16.06 ЮВ 1
{10}
20 км в посл. час гроза 1/1 1000 м
[Cu med, cong]
+30.6 +15.1 39 +33 +35 душно 1007.1 999.7 +32.7
18 16.06 С 3 20 км зарница {гроза} 3/3 1000 м
[Cb cap Ac trans Ci fib]
+24.0 +17.0 65 +28 +28 душно 1008.3 1000.8
21 16.06 СВ 3
{14}
20 км 10/0
[Ac trans Ci]
+20.2 +16.0 77 +23 +23 комфорт 1009.9 1002.2
00 17.06 СЗ 1 20 км в посл. час гроза {ливн. осадки} 4/3 1000 м
[Sc Ac trans]
+18.8 +16.7 88 +21 +21 комфорт 1009.8 1002.1
03 17.06 С 3 20 км 1/1 1000 м
[Cu med, cong]
+18.7 +16.2 85 +20 +21 1010.8 1003.1 +17.2 0.3
06 17.06 СВ 3 20 км 4/4 600 м
[Cu hum]
+22.7 +17.2 71 +28 +33 душно 1012.2 1004.5
09 17.06 В 3 20 км 1/1 1000 м
[Cu hum]
+24.4 +17.3 65 +28 +42 душно 1012.9 1005.3
12 17.06 В 3 20 км 1/1 1000 м
[Cu hum]
+26.9 +16.4 53 +30 +40 душно 1012.0 1004.5
15 17.06 В 2 20 км ясно +25.7 +15.7 54 +29 +31 душно 1012.1 1004.5 +27.4
18 17.06 С 1 20 км ясно +25.7 +15.7 54 +29 +29 душно 1012.1 1005.1
21 17.06 С 2 20 км ясно +21.8 +10.4 48 +24 +24 комфорт 1013.1 1005.4
00 18.06 С 2 20 км ясно +20.0 +10.4 54 +22 +22 комфорт 1012.8 1005.1
03 18.06 С 3 20 км ясно +20.5 +11.2 55 +23 +24 комфорт 1013.4 1005.7 +19.6
06 18.06 СВ 2 20 км ясно +26.7 +11.4 38 +28 +39 жарко 1013.4 1005.9
09 18.06 В 3 20 км ясно +27.4 +15.7 49 +30 +46 жарко 1012.8 1005.3
12 18.06 В 3 20 км 3/3 1000 м
[Cu hum]
+28.6 +13.4 39 +30 +38 жарко 1012.0 1004.5
15 18.06 В 1 20 км ясно +29.0 +13.4 38 +31 +33 жарко 1011.0 1003.5 +29.6
18 18.06 С 2 20 км ясно +25.5 +11.1 40 +27 +27 жарко 1011.7 1004.2
21 18.06 С 3 20 км ясно +24.6 +11.8 45 +26 +26 жарко 1011.7 1004.1
00 19.06 С 2 20 км ясно +23.2 +11.8 49 +26 +26 жарко 1011.7 1004.1
03 19.06 штиль 0 20 км ясно +22.6 +13.6 57 +26 +28 жарко 1011.6 1004.0 +21.1
06 19.06 В 2 20 км ясно +26.3 +13.9 46 +28 +40 жарко 1012.0 1004.5
09 19.06 ЮВ 2 20 км ясно +28.1 +15.9 47 +31 +50 душно 1011.8 1004.3
12 19.06 В 2 20 км 1/1 1000 м
[Cu hum]
+29.9 +14.4 39 +32 +43 жарко 1010.7 1003.2

 

Местоположение метеостанции Цимлянск (Ростовская область, Россия): широта 47.63 долгота 42.12 высота над уровнем моря 66 м.

В архиве по умолчанию представлена погода в Цимлянске за последнюю неделю. Архивные данные за месяц целиком и за предыдущие месяцы, начиная с января 2011 года, Вы можете получить, выбрав интересующий диапазон дат из раскрывающегося списка и нажав кнопку "Ввод!".


*Определитесь, кто Вы:
робот инопланетянин человек

Внимание! Время в таблицах - всемирное. Для получения местного времени необходимо прибавить поправку, которая равна 3 ч.

Смотрите также архив погоды в соседних городах и на ближайших метеорологических станциях:

Погода в Зимовниках (Ростовская область, Россия) (60 км)
Погода в Константиновске (Ростовская область, Россия) (77 км)
Погода в Котельниково (Волгоградская область, Россия) (77 км)
Погода в Морозовске (Ростовская область, Россия) (82 км)
Погода в Семикаракорске (Ростовская область, Россия) (98 км)
Погода в Нижнем Чире (Волгоградская область, Россия) (108 км)
Погода в Белой Калитве (Ростовская область, Россия) (118 км)
Погода в Гиганте (Ростовская область, Россия) (137 км)
Погода в Шахтах (Ростовская область, Россия) (139 км)
Погода в Калаче-на-Дону (Волгоградская область, Россия) (154 км)

Пояснения к столбцам:

Ветер - указаны скорость ветра в м/с - средняя за 10 мин, порывы в срок и между сроками (в фигурных скобках) и направление, откуда дует ветер: С - северный, СВ - северо-восточный, В - восточный, ЮВ - юго-восточный, Ю - южный, ЮЗ - юго-западный, З - западный, СЗ - северо-западный.
Видимость - горизонтальная дальность видимости в метрах или километрах. При видимости от 1 до 10 км при отсутствии осадков обычно наблюдается дымка, при ухудшении видимости до 1 км и менее - туман. В сухую погоду видимость может ухудшаться дымом, пылью или мглою.
Явления - указаны атмосферные явления, наблюдавшиеся в срок или в последний час перед сроком; фигурными скобками обозначены явления, наблюдавшиеся между сроками (за 1-3 часа до срока); квадратными скобками обозначены град или гололедные отложения с указанием их диаметра в мм.
Облачность - указаны через наклонную черту общая и нижняя облачность в баллах и высота нижней границы облаков в метрах; квадратными скобками обозначены формы облаков: Ci - перистые, Cs - перисто-слоистые, Cc - перисто-кучевые, Ac - высококучевые, As - высокослоистые, Sc - слоисто-кучевые, Ns - слоисто-дождевые, Cu - кучевые, Cb - кучево-дождевые. Подробнее классификацию облаков см. в Атласе облаков (PDF).
T - Температура воздуха - температура, измеренная на высоте 2 м над землей.
Td - Температура точки росы - температура, при понижении до которой содержащийся в воздухе водяной пар достигнет насыщения.
f - Относительная влажность воздуха - влажноcть воздуха, измеренная на высоте 2 м над землей.
Te - Эффективная температура - температура, которую ощущает одетый по сезону человек в тени. Характеристика душности погоды. При расчете учитывается влияние влажности воздуха и скорости ветра на теплоощущения человека.
Tes - Эффективная температура на солнце - температура, которую ощущает человек, с поправкой на солнечный нагрев. Характеристика знойности погоды. Зависит от высоты солнца над горизонтом, облачности и скорости ветра. Ночью, в пасмурную погоду, а также при ветре 12 м/с и более поправка равна нулю.
P - Атмосферное давление - приведенное к уровню моря атмосферное давление.
Po - Атмосферное давление - измеренное на уровне метеостанции атмосферное давление.
Tmin - Минимальная температура - минимум температуры воздуха на высоте 2 м над землей.
Tmax - Максимальная температура - максимум температуры воздуха на высоте 2 м над землей.
R - Количество осадков - Количество выпавших осадков за период времени, мм. При наведении курсора мыши на число - период времени, за который выпало указанное количество осадков.
R24 - Количество осадков - Количество выпавших осадков за 24 часа, мм.
S - Снежный покров - Высота снежного покрова, см. При наведении курсора мыши на число - состояние снежного покрова и степень покрытия местности в баллах.